Weather History for Sioux Falls, SD

Change the Weather History Date:

Monday, January 10, 2011

  Actual Average Record
Temperature  
Mean Temperature 14 °F 16 °F  
Max Temperature 20 °F 26 °F 57 °F (2012)
Min Temperature 8 °F 7 °F -26 °F (1982)
Degree Days  
Heating Degree Days 51 49  
Month to date heating degree days 514 490  
Since 1 July heating degree days 3505 3623  
Cooling Degree Days 0 0  
Month to date cooling degree days 0 0  
Year to date cooling degree days 0 0  
Moisture  
Dew Point 13 °F    
Average Humidity 86    
Maximum Humidity 93    
Minimum Humidity 79    
Precipitation  
Precipitation 0.33 in 0.02 in 0.33 in (1975)
Month to date precipitation 0.58 0.19  
Year to date precipitation 0.58 0.19  
Snow  
Snow 3.90 in 0.30 in 4.80 in (1975)
Month to date snowfall 6.7 2.5  
Since 1 July snowfall 25.7 19.4  
Snow Depth 8.00 in    
Sea Level Pressure  
Sea Level Pressure 30.24 in    
Wind  
Wind Speed 9 mph (ENE)    
Max Wind Speed 18 mph    
Max Gust Speed 22 mph    
Visibility 1 miles    
Events Snow    
T = Trace of Precipitation, MM = Missing Value Source: NWS Daily Summary

Daily Weather History Graph

Daily Weather History Graph

Search for Another Location

Airport:

Trip Planner

Search our weather history database for the weather conditions in past years. The results will help you decide how hot, cold, wet, or windy it might be!

Date:

Astronomy

Jan. 10, 2011 Rise Set
Actual Time 7:59 AM CST 5:10 PM CST
Civil Twilight 7:27 AM CST 5:42 PM CST
Nautical Twilight 6:51 AM CST 6:17 PM CST
Astronomical Twilight 6:16 AM CST 6:52 PM CST
Moon 10:42 AM CST (1/10) 11:52 PM CST (1/10)
Length of Visible Light 10h 15m
Length of Day
9h 10m
Waxing Crescent, 34% of the Moon is Illuminated
Jan 10
Waxing Crescent
Jan 12
First Quarter
Jan 19
Full
Jan 26
Last Quarter
Feb 2
New

Hourly Weather History & Observations

Time (CST) Temp. Windchill Dew Point Humidity Pressure Visibility Wind Dir Wind Speed Gust Speed Precip Events Conditions
12:20 AM 15.8 °F 5.1 °F 12.2 °F 86% 30.19 in 1.5 mi ESE 8.1 mph - 0.01 in Snow Light Snow
12:56 AM 16.0 °F 2.9 °F 12.9 °F 88% 30.28 in 1.8 mi ESE 11.5 mph - 0.01 in Snow Light Snow
1:20 AM 15.8 °F 4.2 °F 12.2 °F 86% 30.19 in 1.8 mi ESE 9.2 mph - 0.01 in Snow Light Snow
1:56 AM 16.0 °F 2.9 °F 12.9 °F 88% 30.27 in 1.5 mi ESE 11.5 mph - 0.03 in Snow Light Snow
2:56 AM 16.0 °F 3.6 °F 12.9 °F 88% 30.28 in 1.8 mi ESE 10.4 mph - 0.02 in Snow Light Snow
3:56 AM 16.0 °F 3.6 °F 12.9 °F 88% 30.27 in 1.8 mi East 10.4 mph - 0.02 in Snow Light Snow
4:09 AM 15.8 °F 4.2 °F 12.2 °F 86% 30.18 in 2.0 mi ESE 9.2 mph - 0.01 in Snow Light Snow
4:16 AM 15.8 °F 2.7 °F 12.2 °F 86% 30.19 in 3.0 mi ESE 11.5 mph - 0.01 in Snow Light Snow
4:26 AM 15.8 °F 3.4 °F 12.2 °F 86% 30.19 in 3.0 mi ESE 10.4 mph - 0.01 in Snow Light Snow
4:34 AM 15.8 °F 4.2 °F 12.2 °F 86% 30.19 in 2.5 mi ESE 9.2 mph - 0.01 in Snow Light Snow
4:41 AM 15.8 °F 6.1 °F 12.2 °F 86% 30.19 in 1.8 mi ESE 6.9 mph - 0.01 in Snow Light Snow
4:54 AM 15.8 °F 5.1 °F 12.2 °F 86% 30.19 in 1.2 mi ESE 8.1 mph - 0.01 in Snow Light Snow
4:56 AM 16.0 °F 5.3 °F 12.9 °F 88% 30.28 in 1.2 mi ESE 8.1 mph - 0.01 in Snow Light Snow
5:56 AM 16.0 °F 8.8 °F 12.9 °F 88% 30.28 in 1.2 mi ESE 4.6 mph - 0.03 in Snow Light Snow
6:56 AM 16.0 °F 8.8 °F 14.0 °F 92% 30.30 in 1.2 mi ESE 4.6 mph - 0.01 in Snow Light Snow
7:19 AM 15.8 °F 8.6 °F 14.0 °F 93% 30.21 in 1.2 mi East 4.6 mph - 0.01 in Snow Light Snow
7:33 AM 17.6 °F 10.7 °F 14.0 °F 86% 30.21 in 1.2 mi East 4.6 mph - 0.01 in Snow Light Snow
7:56 AM 17.1 °F 11.7 °F 14.0 °F 88% 30.30 in 1.2 mi East 3.5 mph - 0.01 in Snow Light Snow
8:13 AM 15.8 °F 10.2 °F 12.2 °F 86% 30.22 in 0.8 mi East 3.5 mph - 0.01 in Snow Light Snow
8:43 AM 17.6 °F 10.7 °F 12.2 °F 79% 30.22 in 1.0 mi East 4.6 mph - 0.02 in Snow Light Snow
8:56 AM 17.1 °F 8.7 °F 14.0 °F 88% 30.31 in 1.0 mi East 5.8 mph - 0.02 in Snow Light Snow
9:14 AM 17.6 °F 10.7 °F 14.0 °F 86% 30.22 in 1.2 mi ENE 4.6 mph - 0.01 in Snow Light Snow
9:56 AM 17.1 °F 7.6 °F 14.0 °F 88% 30.30 in 1.0 mi East 6.9 mph - 0.02 in Snow Light Snow
10:15 AM 17.6 °F 9.3 °F 14.0 °F 86% 30.22 in 0.8 mi East 5.8 mph - 0.01 in Snow Light Snow
10:20 AM 17.6 °F 10.7 °F 14.0 °F 86% 30.22 in 1.0 mi East 4.6 mph - 0.01 in Snow Light Snow
10:28 AM 17.6 °F 10.7 °F 14.0 °F 86% 30.22 in 0.8 mi East 4.6 mph - 0.01 in Snow Light Snow
10:56 AM 18.0 °F 11.1 °F 15.1 °F 88% 30.30 in 1.0 mi East 4.6 mph - 0.02 in Snow Light Snow
11:07 AM 17.6 °F 10.7 °F 15.8 °F 93% 30.22 in 0.8 mi East 4.6 mph - 0.00 in Snow Light Snow
11:56 AM 19.0 °F 12.3 °F 15.1 °F 85% 30.28 in 0.8 mi East 4.6 mph - 0.02 in Snow Light Snow
12:12 PM 19.4 °F 12.8 °F 15.8 °F 86% 30.20 in 0.8 mi East 4.6 mph - 0.00 in Snow Light Snow
12:24 PM 19.4 °F 12.8 °F 15.8 °F 86% 30.19 in 0.8 mi East 4.6 mph - 0.01 in Snow Light Snow
12:33 PM 19.4 °F 14.3 °F 15.8 °F 86% 30.19 in 1.0 mi East 3.5 mph - 0.01 in Snow Light Snow
12:49 PM 19.4 °F 12.8 °F 15.8 °F 86% 30.18 in 0.8 mi East 4.6 mph - 0.02 in Snow Light Snow
12:56 PM 19.0 °F 13.9 °F 15.1 °F 85% 30.26 in 0.8 mi East 3.5 mph - 0.02 in Snow Light Snow
12:58 PM 19.4 °F 12.8 °F 15.8 °F 86% 30.18 in 0.8 mi East 4.6 mph - 0.00 in Snow Light Snow
1:02 PM 19.4 °F 11.5 °F 15.8 °F 86% 30.18 in 0.8 mi East 5.8 mph - 0.00 in Snow Light Snow
1:05 PM 19.4 °F 12.8 °F 15.8 °F 86% 30.18 in 1.0 mi East 4.6 mph - 0.00 in Snow Light Snow
1:07 PM 19.4 °F 12.8 °F 15.8 °F 86% 30.18 in 1.5 mi East 4.6 mph - 0.00 in Snow Light Snow
1:30 PM 19.4 °F 11.5 °F 15.8 °F 86% 30.17 in 0.8 mi East 5.8 mph - 0.00 in Snow Light Snow
1:52 PM 19.4 °F 12.8 °F 15.8 °F 86% 30.17 in 1.0 mi East 4.6 mph - 0.01 in Snow Light Snow
1:56 PM 19.0 °F 12.3 °F 15.1 °F 85% 30.26 in 1.0 mi East 4.6 mph - 0.01 in Snow Light Snow
2:19 PM 19.4 °F 12.8 °F 15.8 °F 86% 30.18 in 2.0 mi ESE 4.6 mph - 0.00 in Snow Light Snow
2:27 PM 19.4 °F 14.3 °F 15.8 °F 86% 30.18 in 2.0 mi East 3.5 mph - 0.01 in Snow Light Snow
2:30 PM 19.4 °F - 15.8 °F 86% 30.18 in 1.5 mi Calm Calm - 0.01 in Snow Light Snow
2:53 PM 19.4 °F 14.3 °F 15.8 °F 86% 30.18 in 1.5 mi East 3.5 mph - 0.01 in Snow Light Snow
2:56 PM 19.0 °F - 15.1 °F 85% 30.27 in 1.5 mi Calm Calm - 0.01 in Snow Light Snow
3:10 PM 19.4 °F 14.3 °F 15.8 °F 86% 30.19 in 1.5 mi NE 3.5 mph - 0.00 in Snow Light Snow
3:56 PM 19.9 °F 14.9 °F 15.1 °F 81% 30.28 in 1.0 mi NE 3.5 mph - 0.01 in Snow Light Snow
4:56 PM 19.0 °F 12.3 °F 15.1 °F 85% 30.29 in 1.0 mi NNE 4.6 mph - 0.01 in Snow Light Snow
5:12 PM 17.6 °F 12.3 °F 15.8 °F 93% 30.21 in 1.0 mi North 3.5 mph - 0.00 in Snow Light Snow
5:21 PM 17.6 °F 12.3 °F 15.8 °F 93% 30.21 in 1.0 mi North 3.5 mph - 0.00 in Snow Light Snow
5:56 PM 16.0 °F 4.4 °F 12.9 °F 88% 30.30 in 1.0 mi WNW 9.2 mph - 0.02 in Snow Light Snow
6:03 PM 14.0 °F -1.4 °F 10.4 °F 86% 30.22 in 1.0 mi NW 15.0 mph - 0.00 in Snow Light Snow
6:11 PM 12.2 °F -3.7 °F 10.4 °F 92% 30.22 in 1.0 mi NW 15.0 mph - 0.00 in Snow Light Snow
6:29 PM 12.2 °F -3.7 °F 8.6 °F 85% 30.22 in 1.0 mi NW 15.0 mph - 0.01 in Snow Light Snow
6:56 PM 12.0 °F -4.0 °F 8.1 °F 84% 30.32 in 1.0 mi NW 15.0 mph - 0.01 in Snow Light Snow
7:43 PM 10.4 °F -6.6 °F 6.8 °F 85% 30.23 in 1.0 mi NW 16.1 mph - 0.00 in Snow Light Snow
7:56 PM 10.9 °F -5.4 °F 7.0 °F 84% 30.32 in 1.0 mi NW 15.0 mph - 0.00 in Snow Light Snow
8:56 PM 9.0 °F -8.5 °F 6.1 °F 88% 30.33 in 1.0 mi NW 16.1 mph - 0.00 in Snow Light Snow
9:56 PM 8.1 °F -8.4 °F 3.9 °F 83% 30.33 in 1.8 mi NW 13.8 mph - 0.00 in Snow Light Snow
10:21 PM 8.6 °F -7.0 °F 3.2 °F 79% 30.24 in 2.0 mi NW 12.7 mph - 0.00 in Snow Light Snow
10:32 PM 8.6 °F -8.3 °F 3.2 °F 79% 30.25 in 2.0 mi NW 15.0 mph - 0.00 in Snow Light Snow
10:56 PM 8.1 °F -9.6 °F 3.9 °F 83% 30.34 in 2.0 mi NW 16.1 mph - 0.00 in Snow Light Snow
11:26 PM 8.6 °F -8.3 °F 3.2 °F 79% 30.25 in 4.0 mi NW 15.0 mph - 0.00 in Snow Light Snow
11:56 PM 8.1 °F -9.6 °F 3.9 °F 83% 30.34 in 4.0 mi NW 16.1 mph - 0.00 in Snow Light Snow